Location: Mount Cross
(36.6390°N, 79.4878°W)
Time: 01:07:16
(UTC+00:00)

Vanguard 2 Rocket - Pass Details

Date: 25 March 2023
Orbit: 554 x 3314 km, 32.9° (Epoch: 08 June)

Event Time Altitude Azimuth Distance (km) Brightness Sun altitude
Exits shadow 08:29:59 20° 191° (S) 5,429 10.4 -32.3°
Drops below altitude 10° 08:36:52 10° 173° (S) 6,206 10.9 -31.1°
Sets 08:42:59 0° 161° (SSE) 7,050 11.3 -30.0°
